[[{"header":{"parameterUnit":"m.s-1","parameterCategory":1,"la1":30.2991,"la2":30.254,"lo1":-89.0895,"lo2":-89.0444,"dy":0.0017,"dx":0.0017,"nx":28,"ny":28,"refTime":"2024-08-18T09:00:00:Z","depth":0,"parameterNumber":2,"parameterNumberName":"U-component_of_WINDS"},"data":[0,0,0,0,0,0,0,0,0,0,0,0,0,0,0,0,0,0,0,0,0,0,0,0,0,0,0,0,0,0,0,0,0,0,0,0,0,0,0,0,0,0,0,0,0,0,0,0,0,0,0,0,0,0,0,0,0,0,3.308,3.3082,0,3.3227,3.3228,3.323,3.321,3.3207,3.3205,3.3202,3.3357,3.3364,3.337,0,0,0,0,0,0,0,0,0,0,0,0,0,3.2788,3.2794,3.308,3.3082,3.3084,3.3226,3.3228,3.323,3.321,3.3207,3.3204,3.3201,3.3355,3.3363,3.3371,0,0,0,0,0,0,0,0,0,0,0,0,0,3.2923,3.2796,3.308,3.3091,3.3093,3.3226,3.3228,3.3231,3.3211,3.3207,3.3203,3.32,3.3353,3.3362,3.3372,3.3504,0,0,3.3401,3.3405,0,0,0,0,0,0,0,0,3.2915,3.2934,3.3087,3.309,3.3093,3.3196,3.3182,3.3323,3.3212,3.3166,3.3202,3.3198,3.3307,3.332,3.3356,3.3512,3.3518,3.3402,3.3408,3.3412,3.3414,0,0,0,0,0,0,0,3.2906,3.2927,3.3138,3.309,3.3093,3.309,3.3105,3.3209,3.3256,3.317,3.3169,3.3186,3.3308,3.3347,3.3359,3.3521,3.3402,3.341,3.3416,3.342,3.3793,3.3797,0,0,0,0,0,0,3.2893,3.292,3.3134,3.3143,3.2993,3.3098,3.3115,3.3167,3.3254,3.3264,3.3189,3.3185,3.3332,3.3348,3.3365,3.3525,3.3412,3.3421,3.3426,3.3789,3.3794,3.3798,0,0,0,0,0,0,3.2887,3.2912,3.3128,3.3031,3.3058,3.3107,3.3165,3.3172,3.321,3.3269,3.3278,3.322,3.333,3.3351,3.3469,3.353,3.3425,3.3434,3.3784,3.379,3.3796,3.3847,0,0,0,0,0,0,3.2879,3.291,3.296,3.3032,3.3063,3.3228,3.3169,3.3177,3.3226,3.3222,3.33,3.3309,3.3328,3.3455,3.3479,3.3541,3.3441,3.3779,3.3787,3.3794,3.384,3.3854,3.3867,0,0,0,0,0,3.2868,3.297,3.2963,3.2988,3.3126,3.3232,3.325,3.3269,3.3231,3.3282,3.332,3.3307,3.352,3.3467,3.3494,3.356,3.3775,3.3784,3.3793,3.3834,3.3852,3.3866,0,0,0,0,0,0,3.2905,3.2979,3.2972,3.31,3.3159,3.3228,3.3293,3.3286,3.3359,3.3352,3.3374,3.3392,3.3511,3.3548,3.3488,3.3694,3.3643,3.3658,3.3665,3.3682,3.3694,3.3682,3.3449,0,0,0,0,0,3.2927,3.3006,3.3067,3.3174,3.3204,3.3244,3.329,3.33,3.3363,3.3389,3.3435,3.3499,3.358,3.3633,3.3711,3.3846,3.3863,3.3905,3.3918,3.3929,3.3941,3.4015,3.4034,3.3829,3.3829,3.3829,0,0,3.2975,3.3026,3.3074,3.3183,3.323,3.3311,3.3265,3.3354,3.3415,3.3403,3.3516,3.3553,3.3626,3.3752,3.3811,3.3787,3.4002,3.3941,3.3949,3.3955,3.4027,3.4046,3.4063,3.3835,3.3834,3.3833,0,0,3.3104,3.315,3.3243,3.3292,3.3364,3.3389,3.3412,3.3482,3.3505,3.362,3.3612,3.3687,3.3826,3.3878,3.3923,3.4072,3.4062,3.4098,3.4165,3.4237,3.4253,3.4267,3.432,3.4338,3.411,3.411,3.411,0,3.3155,3.3275,3.3293,3.3382,3.343,3.3422,3.3517,3.3564,3.3659,3.3693,3.3665,3.3839,3.3888,3.4026,3.4063,3.41,3.4127,3.4088,3.4249,3.4264,3.4277,3.4327,3.4347,3.4114,3.4113,3.4113,3.4113,0,3.3334,3.3418,3.3486,3.3575,3.3631,3.3723,3.3756,3.3811,3.3816,3.3845,3.3962,3.402,3.4109,3.4144,3.415,3.4284,3.4266,3.4244,3.4192,3.43,3.4347,3.4367,3.4119,3.4118,3.4116,3.4116,0,0,3.3488,3.3586,3.361,3.365,3.373,3.3796,3.3889,3.3974,3.4021,3.4088,3.4165,3.4284,3.4264,3.4314,3.4327,3.439,3.4504,3.436,3.4362,3.4383,3.4653,3.4668,3.469,3.4499,3.4502,3.4505,3.4647,0,3.3622,3.3783,3.3802,3.3946,3.4024,3.4019,3.4099,3.4158,3.4188,3.426,3.4295,3.4378,3.4345,3.4375,3.4438,3.4476,3.4558,3.4467,3.4572,3.4575,3.4551,3.4715,3.4731,3.4862,3.4665,3.4669,3.4671,0,3.3801,3.387,3.4021,3.4089,3.4123,3.4195,3.4275,3.4344,3.4411,3.4429,3.4485,3.449,3.4587,3.4533,3.4667,3.4605,3.465,3.4675,3.4681,3.469,3.4628,3.4727,3.4904,3.4923,3.4701,3.4698,3.4696,0,3.3895,3.4027,3.4134,3.4169,3.4252,3.4303,3.434,3.4403,3.4454,3.4525,3.4558,3.464,3.4685,3.475,3.4777,3.4735,3.4909,3.4858,3.4927,3.4926,3.4962,3.4959,3.5146,3.4994,3.4994,3.4993,3.4993,0,3.4043,3.4135,3.4178,3.4243,3.4347,3.4369,3.4472,3.4508,3.4564,3.4637,3.4639,3.4709,3.4741,3.4816,3.4839,3.4946,3.4967,3.4984,3.4989,3.4983,3.498,3.5011,3.5002,3.4999,3.4997,3.4996,3.4995,0,3.4165,3.4197,3.4313,3.4383,3.4402,3.4476,3.4535,3.46,3.463,3.4723,3.4746,3.4794,3.4882,3.4916,3.5025,3.504,3.5163,3.5162,3.514,3.514,3.5206,3.5199,3.5419,3.5448,3.5278,3.528,3.5281,0,3.4256,3.4326,3.4403,3.4451,3.449,3.4568,3.4619,3.4645,3.4699,3.478,3.4835,3.4923,3.4994,3.5135,3.5181,3.5264,3.5263,3.5334,3.5275,3.5267,3.5262,3.5256,3.5263,3.5344,3.5346,3.5348,3.5349,0,3.4413,3.4425,3.4498,3.4577,3.4637,3.4701,3.4763,3.4804,3.4839,3.49,3.4989,3.5044,3.5154,3.5241,3.5326,3.5367,3.5364,3.5367,3.5387,3.5381,3.5364,3.5372,3.5167,3.5362,3.536,3.5359,3.5359,3.5358,3.4521,3.4583,3.4646,3.4727,3.4777,3.4835,3.4898,3.4936,3.501,3.51,3.5112,3.5208,3.5274,3.5388,3.5432,3.5508,3.5489,3.5519,3.5526,3.5532,3.5536,3.5354,3.5525,3.5524,3.5524,3.5524,3.5523,0,3.4676,3.4716,3.4791,3.4877,3.4941,3.4933,3.5001,3.5056,3.5139,3.5201,3.527,3.5373,3.5458,3.551,3.5596,3.5647,3.5647,3.5668,3.5663,3.5672,3.5549,3.5522,3.5666,3.5666,3.5666,3.5666,3.5666,3.5666,3.4764,3.4868,3.4889,3.5018,3.5059,3.5151,3.5191,3.5245,3.5294,3.5408,3.5477,3.5511,3.5569,3.5658,3.5736,3.5749,3.578,3.5802,3.5813,3.5696,3.5681,3.5667,3.5642,3.5809,3.5809,3.593,3.5932,3.5932]},{"header":{"parameterUnit":"m.s-1","parameterCategory":1,"la1":30.2991,"la2":30.254,"lo1":-89.0895,"lo2":-89.0444,"dy":0.0017,"dx":0.0017,"nx":28,"ny":28,"refTime":"2024-08-18T09:00:00:Z","depth":0,"parameterNumber":3,"parameterNumberName":"V-component_of_WINDS"},"data":[0,0,0,0,0,0,0,0,0,0,0,0,0,0,0,0,0,0,0,0,0,0,0,0,0,0,0,0,0,0,0,0,0,0,0,0,0,0,0,0,0,0,0,0,0,0,0,0,0,0,0,0,0,0,0,0,0,0,3.9681,3.9682,0,3.9835,3.9837,3.9838,3.9835,3.9833,3.9831,3.9829,3.9979,3.9985,3.9991,0,0,0,0,0,0,0,0,0,0,0,0,0,3.9374,3.938,3.9681,3.9683,3.9685,3.9835,3.9837,3.9839,3.9836,3.9833,3.9831,3.9828,3.9977,3.9984,3.9991,0,0,0,0,0,0,0,0,0,0,0,0,0,3.9515,3.9382,3.968,3.9701,3.9705,3.9834,3.9837,3.9839,3.9836,3.9833,3.983,3.9827,3.9975,3.9984,3.9992,4.0109,0,0,4.0019,4.0023,0,0,0,0,0,0,0,0,3.9507,3.9527,3.9696,3.97,3.9704,3.9813,3.9784,3.9929,3.9837,3.9786,3.9829,3.9826,3.9926,3.9939,3.9974,4.0116,4.0122,4.002,4.0026,4.0029,4.0032,0,0,0,0,0,0,0,3.9498,3.952,3.9741,3.9699,3.9704,3.97,3.9716,3.9811,3.9871,3.979,3.979,3.9809,3.9927,3.9965,3.9977,4.0124,4.002,4.0028,4.0033,4.0037,4.0365,4.0369,0,0,0,0,0,0,3.9485,3.9512,3.9736,3.9746,3.9596,3.9708,3.9727,3.9781,3.987,3.9881,3.9812,3.9808,3.9952,3.9967,3.9983,4.0123,4.0029,4.0038,4.0043,4.0362,4.0366,4.037,0,0,0,0,0,0,3.9478,3.9505,3.973,3.9629,3.9658,3.9716,3.9778,3.9786,3.9824,3.9886,3.9896,3.984,3.995,3.997,4.0077,4.0128,4.0042,4.005,4.0358,4.0363,4.0368,4.0405,0,0,0,0,0,0,3.9469,3.9503,3.955,3.963,3.9663,3.9825,3.9781,3.9791,3.984,3.9837,3.9916,3.9926,3.9949,4.0064,4.0086,4.0139,4.0057,4.0354,4.036,4.0366,4.04,4.0411,4.0421,0,0,0,0,0,3.9458,3.9553,3.9552,3.9579,3.9724,3.9828,3.9847,3.9874,3.9844,3.9891,3.993,3.9923,4.0119,4.0075,4.01,4.0156,4.035,4.0358,4.0366,4.0395,4.0409,4.042,0,0,0,0,0,0,3.9475,3.9564,3.9564,3.9689,3.9751,3.9828,3.9887,3.9888,3.9959,3.9953,3.9981,3.9999,4.0105,4.0141,4.009,4.0271,4.023,4.0243,4.0244,4.0258,4.0268,4.0257,4.0064,0,0,0,0,0,3.9494,3.9574,3.9646,3.9748,3.978,3.9828,3.9875,3.989,3.9955,3.9981,4.0029,4.0089,4.0164,4.0213,4.0286,4.0405,4.042,4.0455,4.0465,4.0474,4.0484,4.0547,4.0563,4.0395,4.0395,4.0395,0,0,3.9532,3.959,3.9639,3.9753,3.9804,3.9883,3.9851,3.9936,3.9994,3.9993,4.0098,4.0134,4.0203,4.0316,4.0368,4.0349,4.0534,4.0484,4.049,4.0496,4.0556,4.0572,4.0586,4.04,4.0399,4.0398,0,0,3.9642,3.9696,3.9786,3.9837,3.9914,3.9945,3.9967,4.0043,4.0068,4.0174,4.0174,4.0241,4.037,4.0419,4.0461,4.0587,4.0582,4.0609,4.0664,4.0724,4.0737,4.0749,4.0792,4.0807,4.0619,4.062,4.062,0,3.9679,3.9802,3.9832,3.9918,3.9967,3.9971,4.006,4.0107,4.0203,4.0235,4.0213,4.0374,4.0421,4.0544,4.0574,4.0609,4.0631,4.06,4.0734,4.0746,4.0757,4.0798,4.0814,4.0622,4.0622,4.0622,4.0621,0,3.9843,3.9927,3.999,4.0085,4.014,4.0228,4.0267,4.0319,4.0329,4.0361,4.0466,4.0522,4.0605,4.0636,4.0646,4.0759,4.0745,4.0728,4.0687,4.0775,4.0814,4.083,4.0626,4.0625,4.0624,4.0624,0,0,3.9969,4.0078,4.01,4.0142,4.0227,4.0291,4.0376,4.0459,4.0502,4.0567,4.0638,4.0746,4.073,4.0777,4.0792,4.0846,4.0938,4.0822,4.0824,4.084,4.1064,4.1075,4.1093,4.0936,4.0939,4.0942,4.1057,0,4.0087,4.0243,4.027,4.0405,4.0481,4.0485,4.0559,4.0616,4.0648,4.0714,4.0748,4.0824,4.0798,4.0826,4.088,4.0916,4.0984,4.0908,4.0998,4.1001,4.0981,4.1114,4.1127,4.1234,4.1073,4.1076,4.1078,0,4.0246,4.0317,4.046,4.0531,4.0564,4.0631,4.0708,4.0773,4.0837,4.0855,4.0907,4.0915,4.1,4.0956,4.1072,4.102,4.1058,4.1081,4.1086,4.1094,4.1044,4.1125,4.1269,4.1284,4.1102,4.11,4.1098,0,4.0321,4.0452,4.0554,4.059,4.0677,4.0723,4.076,4.0822,4.0869,4.0935,4.0965,4.1039,4.108,4.1135,4.1162,4.1128,4.1274,4.1233,4.129,4.1289,4.132,4.1318,4.1471,4.1347,4.1346,4.1346,4.1346,0,4.045,4.0536,4.0589,4.0651,4.0747,4.0776,4.0869,4.0905,4.0959,4.1026,4.1032,4.1094,4.1126,4.1191,4.1212,4.1303,4.1321,4.1336,4.1341,4.1336,4.1333,4.136,4.1353,4.135,4.1349,4.1349,4.1348,0,4.055,4.059,4.07,4.0774,4.0794,4.0861,4.0922,4.098,4.1011,4.1095,4.1116,4.1163,4.124,4.1272,4.1367,4.138,4.1484,4.1483,4.1463,4.1465,4.1519,4.1513,4.1694,4.1718,4.1579,4.158,4.1581,0,4.0629,4.0696,4.0777,4.0823,4.0863,4.0937,4.0986,4.1016,4.1065,4.1142,4.119,4.1268,4.1332,4.1454,4.1495,4.1566,4.1566,4.1624,4.1576,4.1568,4.1564,4.156,4.1565,4.1633,4.1634,4.1635,4.1636,0,4.0765,4.078,4.0852,4.093,4.0988,4.105,4.111,4.1146,4.1185,4.1239,4.132,4.1369,4.1465,4.1541,4.1614,4.1649,4.1648,4.1651,4.1668,4.1663,4.1648,4.1655,4.1486,4.1647,4.1646,4.1645,4.1644,4.1644,4.0856,4.0915,4.098,4.1058,4.1107,4.1163,4.1221,4.1259,4.1327,4.141,4.1422,4.1507,4.1565,4.1664,4.1702,4.1766,4.1751,4.1775,4.1781,4.1787,4.1789,4.1638,4.1779,4.1779,4.1779,4.1779,4.1779,0,4.099,4.1032,4.1104,4.1189,4.1249,4.1246,4.1311,4.1361,4.1437,4.1493,4.1556,4.1646,4.1719,4.1765,4.1837,4.188,4.1881,4.1897,4.1894,4.1901,4.18,4.1778,4.1895,4.1895,4.1895,4.1895,4.1895,4.1895,4.1067,4.1165,4.1188,4.1309,4.135,4.1435,4.1473,4.1523,4.1567,4.1669,4.1731,4.1761,4.1812,4.1888,4.1953,4.1964,4.199,4.2007,4.2017,4.1921,4.1909,4.1897,4.1877,4.2013,4.2013,4.2113,4.2114,4.2115]}]]